Wetterstats.de || Aktuelle Messwerte || Aktuelle Wetterkarten NEU! || Radar / Satellit NEU! || Wetterarchiv || Langzeitwerte NEU! || Klim. Kenntage || Met. Ereignisse || Agrarwerte || Echtzeitwerte

Monatsübersicht für Mai 2020 Diagramm
 
Wetter Information zur Wetteranzeige
Zeitraffer
Tageslänge (hh:mm)
Höchsttemperatur in °C
Uhrzeit
Tiefsttemperatur in °C
Uhrzeit
Luftfeuchte (max., in %)
Uhrzeit
Luftfeuchte (min., in %)
Uhrzeit
Luftdruck (max., in hPa)
Uhrzeit
Luftdruck (min., in hPa)
Uhrzeit
Luftdruck (Ø, in hPa)
Regenrate (max, mm/h)
Uhrzeit
Niederschlag in mm
Verdunstung in mm
Solar in W/m² (Ø)
Solar in W/m² (max.)
UV-Index (max.)
Sonnenscheindauer (hh:mm)
Windrichtung (Ø)
Windstärke (Ø in km/h)
Windstärke (Ø in bft)
Windböe (max., in km/h)
Uhrzeit
Windböe (max., in bft)
Uhrzeit
Taupunkt (max., in °C)
Uhrzeit
Taupunkt (min., in °C)
Uhrzeit
Windchill (min., in °C)
Uhrzeit
Gewitterindex (max.)
Uhrzeit
Waldbrandindex (max.)
Uhrzeit
Graslandfeuerindex (max.)
Uhrzeit
Staubsturm-Index (max.)
Uhrzeit
01
Zeitraffer
15:04
18.2
16:25 Uhr
10.2
06:40 Uhr

85
00:00 Uhr
44
17:30 Uhr
1001.7
00:00 Uhr

999.1
18:30 Uhr
1000.8
0,000
00:00 Uhr
0,000
3.835
347
1062
13:20 Uhr
5.1
13:20 Uhr

05:25:00
8,7
2
38,6
10:20 Uhr

5
9.9
02:15 Uhr
5.2
20:45 Uhr
7.3
04:05 Uhr
2
00:00 Uhr

00:00 Uhr

00:00 Uhr

00:00 Uhr
02
Zeitraffer
15:07
17.3
13:10 Uhr
7.0
04:25 Uhr

94
21:05 Uhr
53
13:10 Uhr
1008.1
23:55 Uhr

1000.6
00:00 Uhr
1003.6
0,000
00:00 Uhr
0,000
3.150
310
1104
12:30 Uhr
5.2
12:30 Uhr

05:30:00
8,2
2
46,7
14:00 Uhr

6
9.2
15:00 Uhr
4.8
04:20 Uhr
4.8
05:10 Uhr
0
00:00 Uhr

00:00 Uhr

00:00 Uhr

00:00 Uhr
03
Zeitraffer
15:11
15.3
16:55 Uhr
7.3
06:10 Uhr

93
00:35 Uhr
51
17:30 Uhr
1016.4
23:05 Uhr

1008.1
00:00 Uhr
1013.7
0,000
00:00 Uhr
0,000
2.845
297
1056
12:25 Uhr
4.9
13:40 Uhr

05:25:00
6,7
1
32,2
11:40 Uhr

5
7.9
11:50 Uhr
4.6
22:35 Uhr
5.3
07:55 Uhr
0
00:00 Uhr

00:00 Uhr

00:00 Uhr

00:00 Uhr
04
Zeitraffer
15:14
15.4
11:55 Uhr
4.8
23:50 Uhr

98
22:40 Uhr
58
11:55 Uhr
1016.5
00:10 Uhr

1014.4
14:30 Uhr
1015.5
12,000
15:30 Uhr
3,400
1.702
187
802
11:50 Uhr
4.0
11:50 Uhr

03:15:00
4,4
1
24,1
17:10 Uhr

4
9.5
15:25 Uhr
4.2
23:45 Uhr
4.8
23:50 Uhr
0
00:00 Uhr

00:00 Uhr

00:00 Uhr

00:00 Uhr
05
Zeitraffer
15:17
11.5
12:35 Uhr
2.8
03:20 Uhr

98
01:40 Uhr
53
12:35 Uhr
1018.8
23:40 Uhr

1015.5
03:55 Uhr
1016.5
4,800
17:30 Uhr
0,800
1.880
285
1021
11:55 Uhr
4.5
12:30 Uhr

05:50:00
5,3
1
32,2
11:00 Uhr

5
5.5
17:35 Uhr
2.3
12:35 Uhr
2.8
03:20 Uhr
0
00:00 Uhr

00:00 Uhr

00:00 Uhr

00:00 Uhr
06
Zeitraffer
15:21
17.4
15:55 Uhr
4.7
00:15 Uhr

87
00:10 Uhr
36
16:40 Uhr
1020.6
11:40 Uhr

1018.2
19:50 Uhr
1019.3
0,000
00:00 Uhr
0,000
3.708
364
1025
13:05 Uhr
5.0
13:05 Uhr

08:05:00
6,7
1
33,8
11:05 Uhr

5
7.2
10:05 Uhr
1.0
23:55 Uhr
4.7
00:15 Uhr
0
00:00 Uhr

00:00 Uhr

00:00 Uhr

00:00 Uhr
07
Zeitraffer
15:25
14.5
16:50 Uhr
6.0
01:40 Uhr

80
05:55 Uhr
54
16:50 Uhr
1021.7
12:45 Uhr

1019.2
00:00 Uhr
1020.4
0,000
00:00 Uhr
0,000
2.794
284
1020
14:15 Uhr
5.2
14:15 Uhr

05:00:00
5,8
1
27,4
15:25 Uhr

4
6.5
14:20 Uhr
0.9
00:55 Uhr
4.5
07:00 Uhr
0
00:00 Uhr

00:00 Uhr

00:00 Uhr

00:00 Uhr
08
Zeitraffer
15:28
22.4
15:30 Uhr
5.9
05:40 Uhr

87
05:45 Uhr
30
15:50 Uhr
1019.6
00:00 Uhr

1014.6
17:55 Uhr
1016.8
0,000
00:00 Uhr
0,000
4.928
444
856
13:15 Uhr
5.1
12:30 Uhr

12:25:00
5,1
1
27,4
14:40 Uhr

4
8.8
10:25 Uhr
2.1
19:20 Uhr
5.9
05:40 Uhr
0
00:00 Uhr

00:00 Uhr

00:00 Uhr

00:00 Uhr
09
Zeitraffer
15:31
23.2
16:25 Uhr
5.9
05:35 Uhr

85
05:40 Uhr
38
09:40 Uhr
1016.1
01:40 Uhr

1010.7
23:45 Uhr
1014.0
0,000
00:00 Uhr
0,000
4.902
452
835
13:15 Uhr
5.2
12:40 Uhr

12:35:00
4,5
1
22,5
15:30 Uhr

4
10.1
12:35 Uhr
3.2
09:40 Uhr
5.9
05:35 Uhr
2
12:35 Uhr

00:00 Uhr

00:00 Uhr

00:00 Uhr
10
Zeitraffer
15:35
25.7
13:35 Uhr
6.8
05:50 Uhr

89
04:20 Uhr
41
13:10 Uhr
1010.8
00:00 Uhr

1001.0
19:15 Uhr
1005.4
0,000
00:00 Uhr
0,000
3.785
330
919
13:30 Uhr
5.1
12:05 Uhr

06:55:00
4,8
1
29,0
10:35 Uhr

4
13.8
20:30 Uhr
4.9
05:50 Uhr
6.8
05:50 Uhr
7
21:25 Uhr

00:00 Uhr

00:00 Uhr

00:00 Uhr
11
Zeitraffer
15:38
16.4
00:06 Uhr
4.2
23:05 Uhr

95
15:05 Uhr
79
07:30 Uhr
1010.0
23:40 Uhr

1000.7
02:10 Uhr
1004.1
4,800
15:00 Uhr
10,400
0.660
51
155
11:05 Uhr
1.0
11:00 Uhr

00:10:00
9,2
2
38,6
04:00 Uhr

5
13.4
03:20 Uhr
3.2
20:05 Uhr
-2.6
18:35 Uhr
6
00:06 Uhr

00:00 Uhr

00:00 Uhr

00:00 Uhr
12
Zeitraffer
15:42
11.8
12:25 Uhr
0.5
05:10 Uhr

95
01:30 Uhr
44
12:30 Uhr
1015.2
09:45 Uhr

1010.1
00:00 Uhr
1013.8
2,400
02:15 Uhr
0,200
2.845
328
1127
12:15 Uhr
5.1
12:10 Uhr

07:40:00
7,9
2
38,6
12:25 Uhr

5
3.4
00:00 Uhr
-1.4
05:25 Uhr
-0.4
06:10 Uhr
0
00:00 Uhr

00:00 Uhr

00:00 Uhr

00:00 Uhr
13
Zeitraffer
15:45
15.3
15:15 Uhr
3.4
04:25 Uhr

82
05:40 Uhr
38
14:50 Uhr
1013.4
00:00 Uhr

1010.0
19:10 Uhr
1011.8
0,000
00:00 Uhr
0,000
3.099
309
1127
12:15 Uhr
5.6
13:40 Uhr

06:10:00
5,9
1
29,0
11:55 Uhr

4
4.4
10:45 Uhr
0.3
04:10 Uhr
1.0
01:25 Uhr
0
00:00 Uhr

00:00 Uhr

00:00 Uhr

00:00 Uhr
14
Zeitraffer
15:48
14.6
15:10 Uhr
4.3
05:05 Uhr

92
05:10 Uhr
43
16:30 Uhr
1018.3
22:30 Uhr

1010.8
00:50 Uhr
1015.1
0,000
00:00 Uhr
0,000
3.785
395
1086
12:50 Uhr
5.0
13:15 Uhr

08:40:00
6,2
1
30,6
11:10 Uhr

5
6.8
10:20 Uhr
0.8
23:55 Uhr
4.3
05:05 Uhr
0
00:00 Uhr

00:00 Uhr

00:00 Uhr

00:00 Uhr
15
Zeitraffer
15:51
16.5
14:55 Uhr
0.1
05:15 Uhr

93
05:35 Uhr
38
13:55 Uhr
1018.7
23:25 Uhr

1015.9
13:45 Uhr
1017.2
0,000
00:00 Uhr
0,000
4.394
465
916
12:00 Uhr
5.2
12:50 Uhr

11:50:00
5,0
1
37,0
15:50 Uhr

5
4.0
21:55 Uhr
-1.2
05:15 Uhr
0.1
05:15 Uhr
0
00:00 Uhr

00:00 Uhr

00:00 Uhr

00:00 Uhr


 
Wetter Information zur Wetteranzeige
Zeitraffer
Tageslänge (hh:mm)
Höchsttemperatur in °C
Uhrzeit
Tiefsttemperatur in °C
Uhrzeit
Luftfeuchte (max., in %)
Uhrzeit
Luftfeuchte (min., in %)
Uhrzeit
Luftdruck (max., in hPa)
Uhrzeit
Luftdruck (min., in hPa)
Uhrzeit
Luftdruck (Ø, in hPa)
Regenrate (max, mm/h)
Uhrzeit
Niederschlag in mm
Verdunstung in mm
Solar in W/m² (Ø)
Solar in W/m² (max.)
UV-Index (max.)
Sonnenscheindauer (hh:mm)
Windrichtung (Ø)
Windstärke (Ø in km/h)
Windstärke (Ø in bft)
Windböe (max., in km/h)
Uhrzeit
Windböe (max., in bft)
Uhrzeit
Taupunkt (max., in °C)
Uhrzeit
Taupunkt (min., in °C)
Uhrzeit
Windchill (min., in °C)
Uhrzeit
Gewitterindex (max.)
Uhrzeit
Waldbrandindex (max.)
Uhrzeit
Graslandfeuerindex (max.)
Uhrzeit
Staubsturm-Index (max.)
Uhrzeit
16
Zeitraffer
15:54
16.4
14:00 Uhr
6.1
05:05 Uhr

81
05:05 Uhr
42
13:55 Uhr
1020.4
09:35 Uhr

1018.2
23:55 Uhr
1019.3
0,000
00:00 Uhr
0,000
3.429
286
1104
13:50 Uhr
5.9
12:55 Uhr

04:30:00
7,8
2
33,8
14:50 Uhr

5
4.8
08:10 Uhr
2.9
17:25 Uhr
6.1
05:05 Uhr
0
00:00 Uhr

00:00 Uhr

00:00 Uhr

00:00 Uhr
17
Zeitraffer
15:57
18.4
16:30 Uhr
8.3
04:50 Uhr

82
06:25 Uhr
37
16:35 Uhr
1020.3
13:30 Uhr

1017.3
02:20 Uhr
1019.0
0,000
00:00 Uhr
0,000
4.623
421
1034
13:20 Uhr
5.6
12:40 Uhr

09:30:00
7,1
2
38,6
13:25 Uhr

5
7.4
08:35 Uhr
2.9
01:30 Uhr
7.7
04:20 Uhr
0
00:00 Uhr

00:00 Uhr

00:00 Uhr

00:00 Uhr
18
Zeitraffer
16:00
22.2
16:45 Uhr
9.7
05:25 Uhr

76
23:55 Uhr
41
16:50 Uhr
1020.9
09:35 Uhr

1017.6
19:30 Uhr
1019.2
0,000
00:00 Uhr
0,000
4.216
343
844
13:05 Uhr
5.0
13:05 Uhr

08:35:00
7,1
2
33,8
07:30 Uhr

5
10.5
22:30 Uhr
3.5
00:50 Uhr
8.7
06:50 Uhr
2
16:15 Uhr

00:00 Uhr

00:00 Uhr

00:00 Uhr
19
Zeitraffer
16:03
19.8
14:45 Uhr
9.6
02:45 Uhr

90
23:55 Uhr
55
17:00 Uhr
1019.7
23:05 Uhr

1017.2
04:40 Uhr
1017.8
0,000
00:00 Uhr
0,000
2.540
227
1035
14:15 Uhr
6.0
14:05 Uhr

02:45:00
5,6
1
29,0
11:40 Uhr

4
11.8
14:10 Uhr
7.5
02:10 Uhr
9.6
02:45 Uhr
3
14:10 Uhr

00:00 Uhr

00:00 Uhr

00:00 Uhr
20
Zeitraffer
16:06
19.6
16:25 Uhr
8.1
04:50 Uhr

92
01:10 Uhr
42
17:25 Uhr
1022.3
23:45 Uhr

1019.5
03:20 Uhr
1020.4
0,000
00:00 Uhr
0,000
4.851
461
965
13:05 Uhr
5.7
12:50 Uhr

11:35:00
5,5
1
29,0
14:25 Uhr

4
8.6
09:00 Uhr
4.9
19:10 Uhr
8.1
04:50 Uhr
0
00:00 Uhr

00:00 Uhr

00:00 Uhr

00:00 Uhr
21
Zeitraffer
16:09
20.4
16:05 Uhr
4.8
05:15 Uhr

91
05:45 Uhr
33
16:25 Uhr
1024.3
10:50 Uhr

1022.0
18:15 Uhr
1023.0
0,000
00:00 Uhr
0,000
5.131
470
940
13:10 Uhr
5.7
12:40 Uhr

11:55:00
5,2
1
25,7
09:00 Uhr

4
7.1
08:00 Uhr
2.5
23:30 Uhr
4.8
05:15 Uhr
0
00:00 Uhr

00:00 Uhr

00:00 Uhr

00:00 Uhr
22
Zeitraffer
16:11
23.2
15:45 Uhr
7.2
04:20 Uhr

72
04:25 Uhr
32
15:45 Uhr
1023.4
01:55 Uhr

1018.8
18:30 Uhr
1021.2
0,000
00:00 Uhr
0,000
5.359
411
1020
13:30 Uhr
6.0
13:10 Uhr

10:30:00
8,3
2
35,4
22:00 Uhr

5
7.3
12:20 Uhr
1.9
05:15 Uhr
7.2
04:20 Uhr
0
00:00 Uhr

00:00 Uhr

00:00 Uhr

00:00 Uhr
23
Zeitraffer
16:14
20.3
12:20 Uhr
9.2
04:35 Uhr

98
07:50 Uhr
52
00:00 Uhr
1021.5
23:40 Uhr

1016.7
15:40 Uhr
1018.1
9,600
19:35 Uhr
4,400
2.286
192
860
12:25 Uhr
5.7
12:15 Uhr

01:55:00
7,7
2
45,1
19:35 Uhr

6
15.4
12:10 Uhr
4.8
00:00 Uhr
5.4
05:00 Uhr
7
12:10 Uhr

00:00 Uhr

00:00 Uhr

00:00 Uhr
24
Zeitraffer
16:17
17.9
11:20 Uhr
8.4
04:45 Uhr

98
22:00 Uhr
57
11:15 Uhr
1023.6
19:15 Uhr

1021.5
00:00 Uhr
1022.3
26,400
18:15 Uhr
12,800
2.464
228
990
11:20 Uhr
4.4
12:20 Uhr

04:35:00
7,1
2
43,5
12:35 Uhr

6
11.1
15:25 Uhr
6.7
04:35 Uhr
6.3
12:45 Uhr
2
12:05 Uhr

00:00 Uhr

00:00 Uhr

00:00 Uhr
25
Zeitraffer
16:20
14.6
15:10 Uhr
9.2
00:50 Uhr

98
00:50 Uhr
75
11:25 Uhr
1030.4
23:50 Uhr

1022.4
01:40 Uhr
1025.4
9,600
15:20 Uhr
1,400
2.159
224
809
16:30 Uhr
4.7
11:20 Uhr

03:15:00
6,9
1
38,6
15:15 Uhr

5
11.5
13:35 Uhr
8.7
04:10 Uhr
6.7
04:05 Uhr
2
00:00 Uhr

00:00 Uhr

00:00 Uhr

00:00 Uhr
26
Zeitraffer
16:22
18.9
15:45 Uhr
7.3
04:10 Uhr

100
05:15 Uhr
50
18:25 Uhr
1033.8
09:40 Uhr

1030.4
00:00 Uhr
1032.3
2,400
04:40 Uhr
0,200
2.489
356
1072
13:25 Uhr
5.8
13:15 Uhr

05:50:00
4,7
1
20,9
13:05 Uhr

4
11.4
11:45 Uhr
7.0
04:10 Uhr
7.1
08:50 Uhr
2
00:00 Uhr

00:00 Uhr

00:00 Uhr

00:00 Uhr
27
Zeitraffer
16:24
22.3
16:05 Uhr
5.1
05:10 Uhr

96
03:45 Uhr
36
13:25 Uhr
1033.1
00:25 Uhr

1026.7
21:15 Uhr
1030.5
0,000
00:00 Uhr
0,000
4.978
468
882
13:05 Uhr
5.8
12:40 Uhr

11:25:00
4,3
1
25,7
22:20 Uhr

4
11.3
21:20 Uhr
4.5
05:10 Uhr
5.1
05:10 Uhr
3
23:55 Uhr

00:00 Uhr

00:00 Uhr

00:00 Uhr
28
Zeitraffer
16:27
19.7
16:40 Uhr
10.4
06:05 Uhr

88
02:30 Uhr
46
16:25 Uhr
1028.4
02:15 Uhr

1026.0
16:40 Uhr
1027.3
2,400
02:10 Uhr
0,800
3.277
267
1090
14:25 Uhr
5.7
12:35 Uhr

05:45:00
8,4
2
32,2
11:40 Uhr

5
11.1
01:50 Uhr
6.2
21:45 Uhr
9.4
07:50 Uhr
3
01:10 Uhr

00:00 Uhr

00:00 Uhr

00:00 Uhr
29
Zeitraffer
16:29
19.9
15:35 Uhr
7.1
04:40 Uhr

89
05:35 Uhr
40
13:30 Uhr
1029.1
05:35 Uhr

1024.1
20:10 Uhr
1027.0
0,000
00:00 Uhr
0,000
4.267
367
1076
11:45 Uhr
6.1
12:15 Uhr

08:55:00
7,2
2
29,0
11:45 Uhr

4
8.0
17:35 Uhr
4.4
13:30 Uhr
6.3
04:05 Uhr
0
00:00 Uhr

00:00 Uhr

00:00 Uhr

00:00 Uhr
30
Zeitraffer
16:31
18.9
16:15 Uhr
6.8
04:05 Uhr

79
04:05 Uhr
42
14:25 Uhr
1024.7
03:30 Uhr

1020.0
18:00 Uhr
1022.4
0,000
00:00 Uhr
0,000
4.724
420
1097
12:45 Uhr
6.0
12:25 Uhr

10:05:00
8,1
2
35,4
10:20 Uhr

5
7.6
21:00 Uhr
3.3
03:55 Uhr
6.8
04:05 Uhr
0
00:00 Uhr

00:00 Uhr

00:00 Uhr

00:00 Uhr
31
Zeitraffer
16:33
23.4
15:10 Uhr
9.4
03:15 Uhr

82
03:10 Uhr
44
14:30 Uhr
1021.3
23:55 Uhr

1017.8
16:00 Uhr
1019.2
0,000
00:00 Uhr
0,000
4.953
391
995
14:15 Uhr
5.9
12:25 Uhr

08:45:00
9,1
2
37,0
14:45 Uhr

5
11.6
11:40 Uhr
6.1
00:05 Uhr
7.5
05:00 Uhr
3
11:40 Uhr

00:00 Uhr

00:00 Uhr

00:00 Uhr
Stationsstandorte || Wetterblog || Wissenswertes || Downloads || Seitenhistorie || Partner || Impressum / Datenschutz